Date String (YYYY-MM-DD hh:mm:ss) UTC,Instrument flags,Ambient pressure (hPa),Sample flow (lpm),Bypass flow (lpm),Sample temperature (°C),Ambient temperature (°C),ASC tube jacket temperature (°C),LED temperature (°C),Box temperature (°C),Sample RH (%),Span deviation,Mass concentration (μg/m³),Mass concentration (μg/m³),Mass concentration (μg/m³)
DateTimeUTC,F1_M11,P_M11,Q1_M11,Q2_M11,T1_M11,T2_M11,T3_M11,T4_M11,T5_M11,U1_M11,ZSPAN_M11,X0_M11,X2_M11,X1_M11
2022-09-19 04:00:00,,0825.8,4.99,0.00,30.1,28.9,00.0,38.7,32.0,21.2,0000.0,0014.16,0005.88,0004.71
2022-09-19 04:01:00,,0825.8,5.01,0.00,30.1,29.0,00.0,38.8,32.0,21.3,0000.0,0014.46,0005.91,0004.77
2022-09-19 04:02:00,,0825.8,4.99,0.00,30.1,29.0,00.0,38.8,32.0,21.4,0000.0,0015.04,0005.96,0004.81
2022-09-19 04:03:00,,0826.3,5.00,0.00,30.2,29.0,00.0,38.8,32.1,21.5,0000.0,0015.25,0005.94,0004.83
2022-09-19 04:04:00,,0825.8,4.99,0.00,30.2,29.1,00.0,38.8,32.1,21.6,0000.0,0014.44,0005.96,0004.87
2022-09-19 04:05:00,,0826.1,5.01,0.00,30.2,28.2,00.0,38.8,32.1,21.7,0000.0,0013.98,0006.03,0004.89
2022-09-19 04:06:00,,0826.3,5.00,0.00,30.2,27.0,00.0,38.8,32.0,21.7,0000.0,0014.40,0006.00,0004.92
2022-09-19 04:07:00,,0825.9,5.00,0.00,30.1,26.9,00.0,38.8,31.9,21.7,0000.0,0013.70,0005.99,0004.94
2022-09-19 04:08:00,,0826.2,5.01,0.00,30.0,27.1,00.0,38.7,31.7,21.8,0000.0,0013.57,0006.04,0004.96
2022-09-19 04:09:00,,0826.1,5.00,0.00,30.0,27.4,00.0,38.7,31.7,22.0,0000.0,0013.06,0006.02,0004.97
2022-09-19 04:10:00,,0826.1,5.00,0.00,30.0,27.7,00.0,38.7,31.7,22.4,0000.0,0013.16,0006.02,0005.00
2022-09-19 04:11:00,,0825.8,4.99,0.00,30.0,28.0,00.0,38.7,31.7,22.4,0001.6,0013.54,0006.01,0005.00
2022-09-19 04:12:00,,0825.7,5.01,0.00,30.0,28.2,00.0,38.7,31.7,22.4,0002.2,0013.14,0006.00,0005.02
2022-09-19 04:13:00,,0825.8,5.00,0.00,30.0,28.3,00.0,38.7,31.7,22.5,0002.0,0012.79,0006.00,0005.03
2022-09-19 04:14:00,,0825.7,4.99,0.00,30.0,28.5,00.0,38.7,31.8,22.5,0002.6,0012.35,0006.00,0005.05
2022-09-19 04:15:00,,0825.8,5.01,0.00,30.0,28.6,00.0,38.7,31.9,22.6,0002.7,0012.26,0005.98,0005.06
2022-09-19 04:16:00,,0825.9,4.99,0.00,30.0,28.7,00.0,38.7,31.9,22.8,0003.4,0012.13,0006.01,0005.09
2022-09-19 04:17:00,,0825.7,5.00,0.00,30.0,28.7,00.0,38.7,31.9,22.7,0003.6,0011.56,0006.03,0005.10
2022-09-19 04:18:00,,0825.8,4.99,0.00,30.1,28.8,00.0,38.7,32.0,22.5,0002.9,0011.60,0005.99,0005.10
2022-09-19 04:19:00,,0826.2,4.99,0.00,30.1,28.9,00.0,38.7,32.0,22.4,0002.1,0012.30,0005.94,0005.10
2022-09-19 04:20:00,,0826.1,5.02,0.00,30.1,28.9,00.0,38.8,32.0,22.4,0001.0,0012.50,0005.92,0005.12
2022-09-19 04:21:00,,0825.9,4.99,0.00,30.1,29.0,00.0,38.8,32.0,22.5,0000.8,0012.35,0005.94,0005.12
2022-09-19 04:22:00,,0826.0,5.00,0.00,30.2,29.0,00.0,38.8,32.0,22.3,0000.6,0011.69,0005.95,0005.13
2022-09-19 04:23:00,,0826.1,5.00,0.00,30.2,29.0,00.0,38.8,32.1,22.3,0000.4,0011.68,0005.96,0005.14
2022-09-19 04:24:00,,0826.2,5.00,0.00,30.2,29.0,00.0,38.9,32.1,22.4,-000.3,0011.98,0006.00,0005.14
2022-09-19 04:25:00,,0826.0,5.00,0.00,30.2,27.8,00.0,38.8,32.0,21.9,-000.5,0012.78,0006.04,0005.15
2022-09-19 04:26:00,,0826.0,5.01,0.00,30.2,26.9,00.0,38.8,32.0,21.8,-000.1,0013.01,0006.07,0005.15
2022-09-19 04:27:00,,0825.9,5.01,0.00,30.1,26.9,00.0,38.8,31.8,22.0,-000.4,0012.99,0006.02,0005.15
2022-09-19 04:28:00,,0825.7,4.99,0.00,30.0,27.2,00.0,38.7,31.7,22.4,-000.9,0013.63,0005.99,0005.14
2022-09-19 04:29:00,,0826.0,4.99,0.00,30.0,27.5,00.0,38.7,31.7,22.2,-001.0,0013.86,0006.01,0005.14
2022-09-19 04:30:00,,0825.7,4.99,0.00,30.0,27.8,00.0,38.7,31.7,22.2,-001.4,0014.36,0006.03,0005.13
2022-09-19 04:31:00,,0825.8,5.00,0.00,30.0,28.0,00.0,38.7,31.7,22.2,-001.2,0014.27,0006.00,0005.13
2022-09-19 04:32:00,,0825.7,5.01,0.00,30.0,28.2,00.0,38.7,31.8,22.1,-001.3,0014.73,0005.99,0005.12
2022-09-19 04:33:00,,0825.7,4.99,0.00,30.0,28.3,00.0,38.7,31.7,22.3,-001.3,0015.92,0006.02,0005.13
2022-09-19 04:34:00,,0825.7,5.01,0.00,30.0,28.4,00.0,38.7,31.8,22.2,-001.2,0015.89,0006.05,0005.14
2022-09-19 04:35:00,,0825.9,4.99,0.00,30.0,28.5,00.0,38.7,31.8,22.3,-000.7,0015.75,0006.04,0005.13
2022-09-19 04:36:00,,0826.3,5.02,0.00,30.0,28.6,00.0,38.7,31.9,22.5,-000.1,0015.44,0006.01,0005.12
2022-09-19 04:37:00,,0826.0,4.99,0.00,30.0,28.7,00.0,38.7,31.9,22.5,0000.0,0015.70,0006.04,0005.12
2022-09-19 04:38:00,,0825.9,5.00,0.00,30.0,28.8,00.0,38.7,31.9,22.0,0000.0,0015.68,0006.04,0005.11
2022-09-19 04:39:00,,0826.0,4.99,0.00,30.1,28.8,00.0,38.7,31.9,22.1,0000.0,0015.36,0006.06,0005.11
2022-09-19 04:40:00,,0825.8,5.00,0.00,30.1,28.9,00.0,38.8,32.0,22.0,0000.0,0014.81,0006.05,0005.11
2022-09-19 04:41:00,,0825.8,5.00,0.00,30.1,28.9,00.0,38.8,32.0,21.8,0000.0,0013.74,0006.06,0005.11
2022-09-19 04:42:00,,0825.9,5.00,0.00,30.2,29.0,00.0,38.8,32.0,21.8,0000.4,0013.92,0006.10,0005.12
2022-09-19 04:43:00,,0825.9,5.01,0.00,30.2,29.0,00.0,38.8,32.1,21.9,0001.2,0014.74,0006.11,0005.12
2022-09-19 04:44:00,,0825.9,4.99,0.00,30.2,29.1,00.0,38.8,32.1,21.8,0001.2,0013.66,0006.09,0005.10
2022-09-19 04:45:00,,0825.9,5.01,0.00,30.2,29.1,00.0,38.9,32.1,21.7,0000.8,0014.37,0006.05,0005.08
2022-09-19 04:46:00,,0825.9,5.00,0.00,30.3,29.1,00.0,38.9,32.1,21.6,0000.0,0014.94,0006.02,0005.06
2022-09-19 04:47:00,,0825.8,5.01,0.00,30.3,29.1,00.0,38.9,32.1,21.4,0000.0,0014.49,0006.00,0005.06
2022-09-19 04:48:00,,0825.8,4.99,0.00,30.3,28.5,00.0,38.9,32.1,21.1,0000.0,0014.42,0005.98,0005.05
2022-09-19 04:49:00,,0825.9,5.01,0.00,30.3,27.2,00.0,38.9,32.0,21.1,0000.0,0014.48,0005.95,0005.04
2022-09-19 04:50:00,,0826.1,4.99,0.00,30.2,26.9,00.0,38.8,32.0,21.3,0000.0,0014.45,0005.95,0005.04
2022-09-19 04:51:00,,0826.1,4.99,0.00,30.1,27.1,00.0,38.8,31.8,21.5,0000.0,0014.53,0005.96,0005.03
2022-09-19 04:52:00,,0825.7,5.00,0.00,30.1,27.4,00.0,38.8,31.7,21.5,0000.0,0014.33,0005.89,0005.02
2022-09-19 04:53:00,,0825.7,5.00,0.00,30.0,27.7,00.0,38.8,31.7,21.3,0000.0,0013.79,0005.85,0005.00
2022-09-19 04:54:00,,0825.7,5.00,0.00,30.0,27.9,00.0,38.8,31.7,21.1,0000.0,0012.45,0005.82,0004.97
2022-09-19 04:55:00,,0825.7,4.99,0.00,30.0,28.1,00.0,38.7,31.7,21.3,0000.0,0012.16,0005.80,0004.97
2022-09-19 04:56:00,,0825.7,5.01,0.00,30.0,28.3,00.0,38.7,31.7,21.5,0000.0,0011.75,0005.80,0004.97
2022-09-19 04:57:00,,0825.7,5.00,0.00,30.0,28.4,00.0,38.7,31.8,21.2,0000.0,0010.99,0005.76,0004.97
2022-09-19 04:58:00,,0825.7,5.00,0.00,30.0,28.5,00.0,38.7,31.9,21.1,0000.0,0011.00,0005.76,0004.97
2022-09-19 04:59:00,,0825.7,5.02,0.00,30.0,28.6,00.0,38.8,31.9,21.0,0000.0,0010.86,0005.73,0004.96
